Home   Weather   Klagenfurt   Past weeks

Flag for Austria Past Weather in Klagenfurt, Carinthia, Austria — Yesterday and Last 2 Weeks

Now
55 °F

Passing clouds.


Feels Like: 55 °F
Forecast: 51 / 67 °F
Wind: 3 mph from Northwest

Location: Klagenfurt-Flughafen

Current Time: Sep 30, 2016 at 10:24:23 AM

Latest Report: Sep 30, 2016 at 9:50 AM


Visibility: 4 mi

Pressure: 30.15 "Hg

Humidity: 94%

Dew Point: 54 °F

Location of KlagenfurtLocation

Past Weather in Klagenfurt — Graph

°F

Klagenfurt Temperature Yesterday

Maximum temperature yesterday: 72 °F (at 3:20 PM)
Minimum temperature yesterday: 46 °F (at 7:20 AM)
Average temperature yesterday: 57 °F

High & Low Weather Summary for the Past Weeks

 TemperatureHumidityPressure
High79 °F (Sep 15, 4:50 PM)100% (Sep 16, 4:20 AM)30.45 "Hg (Sep 16, 4:20 AM)
Low43 °F (Sep 23, 6:20 AM)37% (Sep 22, 3:50 PM)29.80 "Hg (Sep 17, 4:50 AM)
Average58 °F78%30.12 "Hg
* Reported Sep 15 8:20 AM — Sep 30 8:50 AM, Klagenfurt, Weather by CustomWeather, © 2016

Note: Actual official high and low records may vary slightly from our data, if they occured in-between our weather recording intervals... More about our weather records

Advertising

Klagenfurt Weather History for the Previous 24 Hours

Scroll right to see more
 ConditionsComfort  
Time TempWeatherWind HumidityBarometerVisibility
8:50 AM
Fri, Sep 30
52 °FPassing clouds.5 mph94%30.15 "Hg4 mi
8:20 AM50 °FPassing clouds.5 mph94%30.15 "Hg4 mi
7:50 AM48 °FFog.5 mph100%30.15 "Hg2 mi
7:20 AM48 °FFog.5 mph94%30.15 "Hg2 mi
6:50 AM48 °FPassing clouds.3 mph94%30.12 "Hg2 mi
6:20 AM48 °FCool.3 mph94%30.12 "Hg1 mi
5:50 AM48 °FCool.1 mph100%30.12 "Hg2 mi
5:20 AM48 °FFog.2 mph94%30.12 "HgN/A
4:50 AM50 °FRain. Fog.5 mph94%30.12 "Hg6 mi
4:20 AM50 °FRain. Fog.5 mph94%30.12 "Hg4 mi
3:50 AM50 °FPassing clouds.5 mph94%30.12 "Hg6 mi
3:20 AM50 °FFog.2 mph94%30.15 "Hg4 mi
2:50 AM52 °FCool.3 mph94%30.15 "Hg4 mi
2:20 AM52 °FCool.5 mph94%30.15 "HgN/A
1:50 AM52 °FFog.5 mph94%30.15 "Hg4 mi
1:20 AM52 °FCool.5 mph100%30.15 "HgN/A
12:50 AM54 °FCool.3 mph94%30.15 "Hg6 mi
12:20 AM54 °FCool.3 mph94%30.15 "HgN/A
11:50 PM
Thu, Sep 29
54 °FCool.1 mph94%30.15 "HgN/A
11:20 PM54 °FCool.2 mph94%30.18 "HgN/A
10:50 PM55 °FCool.2 mph94%30.15 "HgN/A
10:20 PM55 °FCool.2 mph94%30.15 "HgN/A
9:50 PM57 °FCool.2 mph88%30.15 "HgN/A
9:20 PM57 °FCool.5 mph88%30.15 "HgN/A
8:50 PM59 °FCool.3 mph88%30.15 "HgN/A
8:20 PM61 °FCool.5 mph83%30.15 "HgN/A
7:50 PM61 °FCool.5 mph83%30.15 "HgN/A
7:20 PM63 °FMild.3 mph83%30.15 "HgN/A
6:50 PM66 °FPassing clouds.2 mph73%30.15 "HgN/A
6:20 PM70 °FPassing clouds.2 mph64%30.15 "HgN/A
5:50 PM72 °FPassing clouds.3 mph57%30.15 "HgN/A
5:20 PM72 °FScattered clouds.3 mph57%30.15 "HgN/A
4:50 PM72 °FScattered clouds.2 mph53%30.18 "HgN/A
4:20 PM72 °FScattered clouds.1 mph50%30.18 "HgN/A
3:50 PM72 °FScattered clouds.2 mph50%30.18 "HgN/A
3:20 PM72 °FScattered clouds.3 mph50%30.21 "HgN/A
2:50 PM70 °FPassing clouds.3 mph53%30.21 "HgN/A
2:20 PM68 °FSunny.2 mph53%30.24 "Hg10 mi
1:50 PM68 °FSunny.2 mph56%30.24 "Hg10 mi
1:20 PM66 °FSunny.1 mph56%30.27 "Hg10 mi
12:50 PM64 °FSunny.2 mph64%30.30 "Hg10 mi
12:20 PM63 °FSunny.2 mph68%30.30 "Hg10 mi
11:50 AM63 °FSunny.2 mph68%30.33 "Hg10 mi
11:20 AM59 °FPartly sunny.3 mph77%30.33 "HgN/A
10:50 AM57 °FPartly sunny.3 mph82%30.36 "HgN/A
10:20 AM55 °FPartly sunny.3 mph82%30.36 "HgN/A
Weather by CustomWeather, © 2016

See weather overviewHow to use our weather pages